This is the latest recevied weather packets stored in our database for station/object K8RRT. If no packets are shown the sender has not sent any weather packets the latest 10 day(s).
| Time | Temp. | Humidity | Pressure | Rain* | Wind** | Luminosity | Snow |
|---|---|---|---|---|---|---|---|
| 1777488183 | 20° C | 93% | 1003.1 hPa | 0 mm | - | 348 W/m² | - |
| 1777487881 | 20° C | 93% | 1003.1 hPa | 0 mm | - | 301 W/m² | - |
| 1777487579 | 20° C | 94% | 1003 hPa | 0 mm | - | 164 W/m² | - |
| 1777487275 | 19.44° C | 95% | 1003.2 hPa | 0 mm | - | 364 W/m² | - |
| 1777486972 | 19.44° C | 95% | 1003.2 hPa | 0 mm | - | 485 W/m² | - |
| 1777486669 | 18.89° C | 98% | 1003.2 hPa | 0 mm | - | 605 W/m² | - |
| 1777486367 | 18.89° C | 98% | 1003.1 hPa | 0 mm | - | 962 W/m² | - |
| 1777486064 | 18.33° C | 99% | 1003.3 hPa | 0 mm | - | 716 W/m² | - |
| 1777485760 | 17.78° C | 99% | 1003.7 hPa | 0 mm | - | 197 W/m² | - |
| 1777485455 | 18.33° C | 99% | 1003.8 hPa | 0 mm | - | 244 W/m² | - |
| 1777485152 | 18.33° C | 99% | 1003.9 hPa | 0 mm | - | 354 W/m² | - |
| 1777484848 | 17.78° C | 99% | 1003.8 hPa | 0 mm | - | 1055 W/m² | - |
| 1777484546 | 17.22° C | 99% | 1003.8 hPa | 0 mm | - | 308 W/m² | - |
| 1777484242 | 17.22° C | 99% | 1003.9 hPa | 1.78 mm | - | 103 W/m² | - |
| 1777483938 | 17.22° C | 99% | 1004.3 hPa | 3.56 mm | - | 69 W/m² | - |
| 1777483635 | 17.22° C | 98% | 1004.7 hPa | 3.05 mm | - | 58 W/m² | - |
| 1777483330 | 17.22° C | 98% | 1004.4 hPa | 1.27 mm | - | 95 W/m² | - |
| 1777483026 | 17.78° C | 97% | 1004.6 hPa | 3.05 mm | - | 92 W/m² | - |
| 1777482723 | 17.78° C | 96% | 1004.8 hPa | 6.1 mm | - | 57 W/m² | - |
| 1777482419 | 17.78° C | 95% | 1004.3 hPa | 11.94 mm | - | 100 W/m² | - |
| 1777482116 | 17.78° C | 94% | 1004.4 hPa | 8.89 mm | - | 129 W/m² | - |
| 1777481814 | 18.33° C | 93% | 1004.9 hPa | 0 mm | - | 86 W/m² | - |
| 1777481511 | 18.33° C | 93% | 1004.7 hPa | 0 mm | - | 81 W/m² | - |
| 1777481208 | 17.78° C | 93% | 1004.7 hPa | 0 mm | - | 249 W/m² | - |
| 1777480905 | 18.33° C | 93% | 1004.7 hPa | 0 mm | - | 292 W/m² | - |
* Rain latest hour (hover to see other rain measurements)
** Current wind speed in m/s (hover to see current wind gust speed)